VE3MNX Weather Reports


time (UTC)temp
C
wind
direction
speed
KPH
gust
KPH
rain 1hr
cm
rain 24hr
cm
rain mn
cm
humidity
%
barometer
mb
20260509153938 13 255 12.9 19.3 0.00 0.00 0.00 94 1003.4
20260509152437 12 258 19.3 22.5 0.00 0.00 0.00 95 1004.1
20260509150937 12 251 16.1 24.1 0.00 0.00 0.00 95 1003.7
20260509145438 12 246 11.3 16.1 0.00 0.00 0.00 96 1004.1
20260509143937 12 231 11.3 12.9 0.00 0.00 0.00 96 1004.1
20260509142438 11 267 14.5 19.3 0.00 0.00 0.00 98 1004.1
20260509140938 11 253 8.0 12.9 0.00 0.00 0.00 99 1004.1
20260509135437 11 236 9.7 12.9 0.00 0.00 0.00 99 1004.1
20260509133938 11 249 9.7 12.9 0.00 0.00 0.00 99 1004.1
20260509132438 11 229 9.7 14.5 0.00 0.00 0.00 99 1004.1
20260509130937 11 248 4.8 9.7 0.00 0.00 0.00 99 1004.2
20260509125437 11 249 8.0 11.3 0.00 0.00 0.00 99 1004.2
20260509123937 11 250 8.0 9.7 0.00 0.00 0.00 99 1004.4
20260509122437 11 239 9.7 12.9 0.00 0.00 0.00 99 1004.7
20260509120938 10 236 1.6 8.0 0.00 0.00 0.00 99 1004.4
20260509115439 10 235 4.8 8.0 0.00 0.00 0.00 99 1004.7
20260509113937 10 232 1.6 3.2 0.00 0.00 0.00 99 1004.7
20260509112440 10 242 4.8 8.0 0.00 0.00 0.00 99 1004.7
20260509110937 11 259 8.0 9.7 0.00 0.00 0.00 99 1004.4
20260509105437 10 275 4.8 12.9 0.00 0.00 0.00 99 1004.4
20260509103937 10 262 4.8 11.3 0.00 0.00 0.00 99 1004.4
20260509102438 10 256 8.0 12.9 0.00 0.00 0.00 99 1004.4
20260509100938 10 245 4.8 8.0 0.00 0.00 0.00 99 1004.4
20260509095438 10 258 4.8 9.7 0.00 0.00 0.00 99 1004.4
20260509093937 10 258 4.8 8.0 0.00 0.00 0.00 99 1004.7
20260509092438 10 276 4.8 4.8 0.00 0.00 0.00 99 1004.4
20260509090937 10 240 8.0 9.7 0.00 0.00 0.00 99 1004.7
20260509085438 10 247 8.0 12.9 0.00 0.00 0.00 99 1004.9
20260509083938 10 259 9.7 11.3 0.00 0.00 0.00 99 1004.7
20260509082438 10 253 8.0 12.9 0.00 0.00 0.00 99 1005.1
20260509080938 10 246 8.0 11.3 0.00 0.00 0.00 99 1005.1
20260509075438 10 246 4.8 8.0 0.00 0.00 0.00 99 1004.7
20260509073937 10 257 8.0 9.7 0.00 0.00 0.00 99 1005.1
20260509072438 10 260 8.0 11.3 0.00 0.00 0.00 99 1005.1
20260509070937 10 276 9.7 12.9 0.00 0.00 0.00 99 1005.4
20260509065438 10 256 8.0 8.0 0.00 0.00 0.00 99 1005.4
20260509063937 10 259 4.8 9.7 0.00 0.00 0.00 99 1005.8
20260509062437 10 247 4.8 9.7 0.00 0.00 0.00 99 1005.8
20260509060938 10 235 4.8 9.7 0.00 0.00 0.00 99 1005.8
20260509055437 10 241 4.8 8.0 0.00 0.00 0.00 98 1005.8
20260509053937 10 259 3.2 11.3 0.00 0.00 0.00 98 1005.8
20260509052438 10 247 4.8 9.7 0.00 0.00 0.00 99 1006.1
20260509050938 10 267 8.0 9.7 0.00 0.00 0.00 99 1006.4
20260509045437 10 255 8.0 9.7 0.00 0.00 0.00 99 1006.4
20260509043936 10 253 8.0 9.7 0.00 0.00 0.00 99 1006.4
20260509042439 10 252 8.0 12.9 0.00 0.00 0.00 98 1006.4
20260509040937 10 264 8.0 12.9 0.00 0.00 0.00 99 1006.4
20260509035438 10 243 8.0 11.3 0.00 0.00 0.00 99 1006.4
20260509033938 10 254 9.7 12.9 0.00 0.00 0.00 99 1006.8
20260509032438 10 271 9.7 11.3 0.00 0.00 0.00 99 1006.4
20260509030937 10 246 4.8 9.7 0.00 0.00 0.00 99 1006.8
20260509025437 10 254 8.0 9.7 0.00 0.00 0.00 99 1007.1
20260509023937 10 252 4.8 8.0 0.00 0.00 0.00 99 1007.1
20260509022437 10 228 4.8 8.0 0.00 0.00 0.00 99 1007.1
20260509020937 9 231 4.8 9.7 0.00 0.00 0.00 99 1007.1
20260509015437 9 241 4.8 9.7 0.00 0.00 0.00 98 1007.5
20260509013937 9 220 8.0 9.7 0.00 0.00 0.00 98 1007.1
20260509012437 9 234 4.8 9.7 0.00 0.00 0.00 98 1007.1
20260509010937 10 207 9.7 12.9 0.00 0.00 0.00 97 1007.1
20260509005438 10 191 9.7 20.9 0.00 0.00 0.00 96 1006.8
20260509003937 10 191 9.7 11.3 0.00 0.00 0.00 96 1006.8
20260509002444 9 186 9.7 12.9 0.00 0.00 0.00 96 1007.1
20260509000942 10 184 14.5 22.5 0.00 0.00 0.00 95 1006.9
20260508235437 10 178 14.5 19.3 0.00 0.00 0.00 95 1007.0
20260508233937 10 181 11.3 14.5 0.00 0.00 0.00 95 1006.8
20260508232439 10 188 12.9 19.3 0.00 0.00 0.00 95 1006.8
20260508230937 10 122 9.7 14.5 0.00 0.00 0.00 95 1006.8
20260508225437 10 233 3.2 11.3 0.00 0.00 0.00 95 1006.8
20260508223936 10 84 3.2 11.3 0.00 0.00 0.00 95 1007.5
20260508222437 10 182 1.6 14.5 0.00 0.00 0.00 95 1007.5
20260508220937 10 201 4.8 16.1 0.00 0.00 0.00 94 1007.8
20260508215438 10 131 4.8 19.3 0.00 0.00 0.00 94 1007.5
20260508213938 10 49 1.6 12.9 0.00 0.00 0.00 93 1007.5
20260508212437 10 216 1.6 9.7 0.00 0.00 0.00 92 1007.5
20260508210937 11 157 1.6 11.3 0.00 0.00 0.00 90 1007.5
20260508205437 11 138 3.2 12.9 0.00 0.00 0.00 89 1007.8
20260508203937 11 189 4.8 9.7 0.00 0.00 0.00 91 1008.1
20260508202438 11 202 11.3 12.9 0.00 0.00 0.00 89 1008.5
20260508200938 11 120 1.6 9.7 0.00 0.00 0.00 88 1008.8
20260508195438 12 145 3.2 11.3 0.00 0.00 0.00 88 1008.7
20260508193938 11 178 3.2 9.7 0.00 0.00 0.00 89 1009.2
20260508192438 10 181 9.7 12.9 0.00 0.00 0.00 87 1009.5
20260508190938 10 177 8.0 14.5 0.00 0.00 0.00 89 1009.1
20260508185438 10 178 11.3 16.1 0.00 0.00 0.00 90 1009.1
20260508183940 10 180 9.7 14.5 0.00 0.00 0.00 88 1009.5
20260508182439 10 172 11.3 14.5 0.00 0.00 0.00 87 1009.5
20260508180938 10 182 11.3 16.1 0.00 0.00 0.00 89 1009.8
20260508175439 10 184 12.9 16.1 0.00 0.00 0.00 89 1010.2
20260508173938 10 164 12.9 16.1 0.00 0.00 0.00 90 1010.2
20260508172439 10 212 12.9 14.5 0.00 0.00 0.00 88 1010.2
20260508170938 11 163 4.8 9.7 0.00 0.00 0.00 87 1010.5
20260508165439 11 172 4.8 9.7 0.00 0.00 0.00 86 1010.8
20260508163940 10 184 8.0 9.7 0.00 0.00 0.00 87 1010.5
20260508162439 11 184 4.8 9.7 0.00 0.00 0.00 86 1010.8
20260508160942 10 168 4.8 8.0 0.00 0.00 0.00 85 1010.5